Location: Elstree
(51.6403°N, 0.2969°W)
Time: 10:12:48
(UTC+00:00)

N. Korean satellite - Visible Passes

Search period start: 08 December 2022 00:00
Search period end: 18 December 2022 00:00
Orbit: 421 x 452 km, 97.3° (Epoch: 07 December)

Date Brightness Start Highest point End Pass type
(mag) Time Alt. Az. Time Alt. Az. Time Alt. Az.
08 Dec 6.4 05:30:18 10° NNE 05:33:43 82° ESE 05:37:05 10° SSW visible
08 Dec 8.4 07:04:48 10° NW 07:05:39 11° WNW 07:06:29 10° WNW visible
08 Dec 9.8 17:39:04 10° WSW 17:40:35 12° W 17:42:07 10° WNW visible
09 Dec 8.5 04:51:33 10° NE 04:54:31 27° E 04:57:26 10° SSE visible
09 Dec 7.4 06:24:08 10° N 06:26:57 24° WNW 06:29:43 10° WSW visible
09 Dec 8.5 16:58:05 10° SSW 17:01:11 32° W 17:04:18 10° NNW visible
10 Dec 9.9 04:14:15 10° ENE 04:15:03 11° E 04:15:50 10° ESE visible
10 Dec 6.2 05:44:36 10° N 05:47:59 67° WNW 05:51:18 10° SSW visible
11 Dec 7.7 05:05:32 10° NNE 05:08:45 39° E 05:11:54 10° S visible
11 Dec 7.8 06:38:37 10° NNW 06:40:59 18° WNW 06:43:20 10° WSW visible
11 Dec 9.2 17:12:36 10° SSW 17:15:21 23° W 17:18:08 10° NW visible
12 Dec 9.5 04:27:13 10° NE 04:29:14 15° E 04:31:14 10° SE visible
12 Dec 6.6 05:58:43 10° N 06:01:59 45° WNW 06:05:10 10° SW visible
12 Dec 7.0 16:32:33 10° S 16:35:56 64° W 16:39:20 10° NNW visible
13 Dec 6.9 05:19:22 10° NNE 05:22:43 58° E 05:26:00 10° S visible
13 Dec 8.2 06:53:03 10° NNW 06:54:46 13° WNW 06:56:28 10° W visible
13 Dec 9.6 17:27:07 10° SW 17:29:21 16° W 17:31:36 10° NW visible
14 Dec 9.2 04:40:34 10° NE 04:44:32 16° SE 04:45:44 10° SE visible
14 Dec 7.5 06:12:41 10° N 06:17:57 15° SW 06:18:42 10° SW visible
14 Dec 7.8 16:46:28 10° S 16:49:43 43° W 16:53:01 10° NNW visible
15 Dec 8.2 05:33:02 10° NNE 05:38:51 17° SSW 05:39:44 10° SSW visible
15 Dec 9.9 17:41:48 10° WSW 17:43:07 12° W 17:44:27 10° WNW visible
16 Dec 9.3 04:53:53 10° NE 04:59:31 11° SSE 04:59:45 10° SSE visible
16 Dec 8.3 06:26:30 10° NNW 06:32:53 - SW 06:27:20 15° NNW visible
16 Dec 8.6 17:00:16 10° SSW 17:03:19 30° W 17:06:23 10° NNW visible
17 Dec10.204:20:02SE04:20:02SE04:13:45NEvisible
17 Dec 8.7 05:46:33 10° N 05:53:24 - SSW 05:47:04 14° N visible
